Volver al catálogo

STARLINK-37457

ActivoComunicacionesVLEO
NORAD 100294·PAYLOAD·🇺🇸 United States

Lanzado Aug 11, 2026 desde Cape Canaveral Space Force Station

Loading…

Próximos Pases (próximas 24 horas)

TLE

EnvejeciendoSource: Space-Track

Época: Sep 12, 2026, 20:05 UTC

1 A0294U 26183Y   26255.83721638 -.00310081  00000-0 -28436-2 0  9993
2 A0294  53.1589 294.8936 0001986   9.5963 350.5092 15.68011430  5104

Sigue STARLINK-37457 en tiempo real con AllMySat

Download on the App Store